Regional Weather Roundup
Issued by NWS Cleveland, OH

Home | Current Version | Previous Version | Graphics & Text | Print | Product List | Glossary On
Versions: 1 2 3 4 5 6 7 8 9 10 11 12 13 14 15 16 17 18 19 20 21 22 23 24 25 26 27 28 29 30 31 32 33 34 35 36 37 38 39 40 41 42 43 44 45 46 47 48 49 50
000
ASUS41 KCLE 281310
RWRCLE
OHIO REGIONAL WEATHER ROUNDUP
NATIONAL WEATHER SERVICE WILMINGTON, OH
900 AM EDT FRI APR 28 2017

NOTE: "FAIR" INDICATES FEW OR NO CLOUDS BELOW 12,000 FEET WITH NO
SIGNIFICANT WEATHER AND/OR OBSTRUCTIONS TO VISIBILITY.

OHZ001>008-015>018-024>027-034-035-043-044-281400-
   NORTHWEST OHIO

CITY           SKY/WX    TMP DP  RH WIND       PRES   REMARKS
DEFIANCE       FAIR      48  41  76 S7        30.01R
FINDLAY        FAIR      51  42  71 S10       30.03R
TOLEDO EXPRESS FAIR      48  41  76 S8        30.01R
TOLEDO EXEC    FAIR      50  43  77 S8        30.03R
LIMA           FAIR      49  44  83 SE9       30.01R
$$

OHZ009>014-019>023-028>033-038-089-281400-
   NORTHEAST OHIO

CITY           SKY/WX    TMP DP  RH WIND       PRES   REMARKS
CLE-HOPKINS    PTSUNNY   52  40  63 S8        30.04R
CLE-LAKEFRONT  FAIR      52  41  66 S9        30.01R
CUY CO. ARPT   PTSUNNY   52  45  76 SW6       30.04R
LORAIN-ELYRIA  FAIR      49  40  71 S6        30.02R
ASHTABULA      FAIR      51  44  77 SW10      30.04R
AKRON-CANTON   PTSUNNY   53  43  68 W7        30.05R
WOOSTER        FAIR      50  43  77 S8        30.05R
MANSFIELD      FAIR      48  43  82 S12       30.04R
YOUNGSTOWN     FAIR      53  44  71 SW8       30.05R
$$

OHZ042-051>053-060>062-070>072-077>081-281400-
  SOUTHWEST OHIO

CITY           SKY/WX    TMP DP  RH WIND       PRES   REMARKS
CINC-COVINGTON CLOUDY    52  47  83 SE12      30.02F
CINC-LUNKEN    PTSUNNY   52  50  93 NE3       30.04F
HAMILTON       FAIR      53  47  79 VRB3      30.04S
DAYTON         PTSUNNY   50  44  80 SE9       30.06R
WRIGHT-PAT AFB FAIR      52  46  81 SE5       30.05R
DAYTON GENERAL FAIR      51  45  79 E9        30.02S
WILMINGTON     FAIR      52  47  83 SE12      30.03R
$$

OHZ036-037-039>041-045>050-054>059-063>069-073>076-082>088-281400-
  CENTRAL AND SOUTHEAST OHIO

CITY           SKY/WX    TMP DP  RH WIND       PRES   REMARKS
COLUMBUS       CLOUDY    53  46  77 SE6       30.05R
OSU AIRPORT    FAIR      51  45  79 SE7       30.04R
BOLTON FIELD   SUNNY     54  46  76 SE9       30.05R
RICKENBACK AFB FAIR      53  48  85 SE6       30.05R
NEWARK         FAIR      54  44  69 E5        30.05R
MARION         FAIR      49  42  77 S14       30.04R
LANCASTER      FAIR      56  48  74 E3        30.06R
ZANESVILLE     FAIR      54  45  71 N3        30.08R
NEW PHILLY     FAIR      53  45  74 NW3       30.07R
$$




USA.gov is the U.S. government's official web portal to all federal, state and local government web resources and services.